| time (UTC) | temp C | wind direction | speed KPH | gust KPH | rain 1hr cm | rain 24hr cm | rain mn cm | humidity % | barometer mb |
| 20260509115038 | 1 | 0 | 0.0 | 0.0 | 0.00 | 0.00 | 0.00 | 85 | 1012.3 |
| 20260509114551 | 1 | 0 | 0.0 | 0.0 | 0.00 | 0.00 | 0.00 | 86 | 1012.3 |
| 20260509114129 | 1 | 0 | 0.0 | 0.0 | 0.00 | 0.00 | 0.00 | 88 | 1012.3 |
| 20260509113539 | 1 | 0 | 0.0 | 0.0 | 0.00 | 0.00 | 0.00 | 88 | 1012.2 |
| 20260509113054 | 0 | 0 | 0.0 | 0.0 | 0.00 | 0.00 | 0.00 | 89 | 1012.4 |
| 20260509112539 | 0 | 0 | 0.0 | 0.0 | 0.00 | 0.00 | 0.00 | 89 | 1012.3 |
| 20260509112039 | 0 | 0 | 0.0 | 0.0 | 0.00 | 0.00 | 0.00 | 90 | 1012.3 |
| 20260509111551 | 0 | 0 | 0.0 | 0.0 | 0.00 | 0.00 | 0.00 | 90 | 1012.2 |
| 20260509111039 | 0 | 0 | 0.0 | 0.0 | 0.00 | 0.00 | 0.00 | 90 | 1012.2 |
| 20260509110540 | 0 | 0 | 0.0 | 0.0 | 0.00 | 0.00 | 0.00 | 90 | 1012.2 |
| 20260509110047 | -1 | 0 | 0.0 | 0.0 | 0.00 | 0.00 | 0.00 | 90 | 1012.2 |
| 20260509105539 | -1 | 0 | 0.0 | 0.0 | 0.00 | 0.00 | 0.00 | 90 | 1012.2 |
| 20260509105039 | -1 | 0 | 0.0 | 0.0 | 0.00 | 0.00 | 0.00 | 90 | 1012.2 |
| 20260509104552 | -1 | 0 | 0.0 | 3.2 | 0.00 | 0.00 | 0.00 | 90 | 1012.2 |
| 20260509104039 | -1 | 0 | 0.0 | 3.2 | 0.00 | 0.00 | 0.00 | 90 | 1012.2 |
| 20260509103539 | -1 | 0 | 1.6 | 4.8 | 0.00 | 0.00 | 0.00 | 90 | 1012.1 |
| 20260509103053 | -1 | 126 | 1.6 | 4.8 | 0.00 | 0.00 | 0.00 | 90 | 1012.1 |
| 20260509102539 | -2 | 126 | 1.6 | 4.8 | 0.00 | 0.00 | 0.00 | 90 | 1012.0 |
| 20260509102040 | -2 | 0 | 1.6 | 4.8 | 0.00 | 0.00 | 0.00 | 90 | 1012.0 |
| 20260509101554 | -2 | 0 | 0.0 | 4.8 | 0.00 | 0.00 | 0.00 | 90 | 1012.0 |
| 20260509101039 | -2 | 0 | 0.0 | 0.0 | 0.00 | 0.00 | 0.00 | 90 | 1012.0 |
| 20260509100540 | -2 | 0 | 0.0 | 0.0 | 0.00 | 0.00 | 0.00 | 90 | 1011.8 |
| 20260509100053 | -1 | 0 | 0.0 | 0.0 | 0.00 | 0.00 | 0.00 | 90 | 1011.9 |
| 20260509095540 | -1 | 0 | 0.0 | 0.0 | 0.00 | 0.00 | 0.00 | 90 | 1011.8 |
| 20260509095039 | -1 | 0 | 0.0 | 0.0 | 0.00 | 0.00 | 0.00 | 90 | 1011.7 |
| 20260509094544 | -1 | 0 | 0.0 | 0.0 | 0.00 | 0.00 | 0.00 | 90 | 1011.6 |
| 20260509094040 | -1 | 0 | 0.0 | 0.0 | 0.00 | 0.00 | 0.00 | 90 | 1011.5 |
| 20260509093538 | -1 | 0 | 0.0 | 0.0 | 0.00 | 0.00 | 0.00 | 90 | 1011.5 |
| 20260509093056 | -1 | 0 | 0.0 | 1.6 | 0.00 | 0.00 | 0.00 | 90 | 1011.5 |
| 20260509092542 | -1 | 0 | 0.0 | 3.2 | 0.00 | 0.00 | 0.00 | 90 | 1011.5 |
| 20260509092040 | -1 | 132 | 0.0 | 3.2 | 0.00 | 0.00 | 0.00 | 90 | 1011.5 |
| 20260509091614 | -1 | 132 | 0.0 | 3.2 | 0.00 | 0.00 | 0.00 | 90 | 1011.5 |
| 20260509091039 | -1 | 132 | 0.0 | 3.2 | 0.00 | 0.00 | 0.00 | 90 | 1011.4 |
| 20260509090540 | -1 | 0 | 0.0 | 0.0 | 0.00 | 0.00 | 0.00 | 90 | 1011.4 |
| 20260509090051 | -1 | 0 | 0.0 | 0.0 | 0.00 | 0.00 | 0.00 | 90 | 1011.4 |
| 20260509085539 | -1 | 0 | 0.0 | 0.0 | 0.00 | 0.00 | 0.00 | 90 | 1011.5 |
| 20260509085042 | -1 | 0 | 0.0 | 1.6 | 0.00 | 0.00 | 0.00 | 89 | 1011.5 |
| 20260509084549 | -1 | 0 | 0.0 | 3.2 | 0.00 | 0.00 | 0.00 | 89 | 1011.4 |
| 20260509084039 | -1 | 0 | 0.0 | 3.2 | 0.00 | 0.00 | 0.00 | 89 | 1011.4 |
| 20260509083538 | -1 | 132 | 1.6 | 3.2 | 0.00 | 0.00 | 0.00 | 89 | 1011.4 |
| 20260509083053 | -1 | 132 | 0.0 | 3.2 | 0.00 | 0.00 | 0.00 | 89 | 1011.4 |
| 20260509082539 | -1 | 132 | 0.0 | 4.8 | 0.00 | 0.00 | 0.00 | 89 | 1011.4 |
| 20260509082040 | -1 | 132 | 0.0 | 4.8 | 0.00 | 0.00 | 0.00 | 89 | 1011.5 |
| 20260509081552 | -1 | 157 | 1.6 | 3.2 | 0.00 | 0.00 | 0.00 | 89 | 1011.4 |
| 20260509081039 | -1 | 157 | 0.0 | 3.2 | 0.00 | 0.00 | 0.00 | 89 | 1011.4 |
| 20260509080538 | -1 | 0 | 0.0 | 0.0 | 0.00 | 0.00 | 0.00 | 89 | 1011.4 |
| 20260509080105 | -1 | 0 | 0.0 | 0.0 | 0.00 | 0.00 | 0.00 | 89 | 1011.3 |
| 20260509075542 | -1 | 0 | 0.0 | 0.0 | 0.00 | 0.00 | 0.00 | 89 | 1011.4 |
| 20260509075042 | -1 | 0 | 0.0 | 0.0 | 0.00 | 0.00 | 0.00 | 89 | 1011.4 |
| 20260509074552 | -1 | 0 | 0.0 | 0.0 | 0.00 | 0.00 | 0.00 | 88 | 1011.4 |
| 20260509074040 | -1 | 0 | 0.0 | 0.0 | 0.00 | 0.00 | 0.00 | 88 | 1011.4 |
| 20260509073539 | -1 | 0 | 0.0 | 0.0 | 0.00 | 0.00 | 0.00 | 88 | 1011.5 |
| 20260509073115 | -1 | 0 | 0.0 | 0.0 | 0.00 | 0.00 | 0.00 | 88 | 1011.5 |
| 20260509072542 | -1 | 0 | 0.0 | 0.0 | 0.00 | 0.00 | 0.00 | 88 | 1011.5 |
| 20260509072039 | -1 | 0 | 0.0 | 0.0 | 0.00 | 0.00 | 0.00 | 88 | 1011.5 |
| 20260509071548 | -1 | 0 | 0.0 | 0.0 | 0.00 | 0.00 | 0.00 | 88 | 1011.5 |
| 20260509071039 | -1 | 0 | 0.0 | 0.0 | 0.00 | 0.00 | 0.00 | 87 | 1011.5 |
| 20260509070544 | -1 | 0 | 0.0 | 0.0 | 0.00 | 0.00 | 0.00 | 87 | 1011.6 |
| 20260509070054 | -1 | 0 | 0.0 | 0.0 | 0.00 | 0.00 | 0.00 | 87 | 1011.5 |
| 20260509065539 | -1 | 0 | 0.0 | 0.0 | 0.00 | 0.00 | 0.00 | 87 | 1011.6 |
| 20260509065040 | -1 | 0 | 0.0 | 1.6 | 0.00 | 0.00 | 0.00 | 87 | 1011.5 |
| 20260509064548 | -1 | 0 | 0.0 | 1.6 | 0.00 | 0.00 | 0.00 | 87 | 1011.5 |
| 20260509064044 | 0 | 0 | 0.0 | 1.6 | 0.00 | 0.00 | 0.00 | 87 | 1011.6 |
| 20260509063540 | 0 | 0 | 0.0 | 0.0 | 0.00 | 0.00 | 0.00 | 87 | 1011.6 |
| 20260509063047 | 0 | 0 | 0.0 | 0.0 | 0.00 | 0.00 | 0.00 | 86 | 1011.6 |
| 20260509062537 | 0 | 0 | 0.0 | 0.0 | 0.00 | 0.00 | 0.00 | 86 | 1011.6 |
| 20260509062040 | 0 | 0 | 0.0 | 1.6 | 0.00 | 0.00 | 0.00 | 86 | 1011.5 |
| 20260509061555 | 0 | 0 | 0.0 | 1.6 | 0.00 | 0.00 | 0.00 | 86 | 1011.6 |
| 20260509061040 | 0 | 0 | 0.0 | 3.2 | 0.00 | 0.00 | 0.00 | 85 | 1011.6 |
| 20260509060540 | 0 | 0 | 0.0 | 3.2 | 0.00 | 0.00 | 0.00 | 85 | 1011.6 |
| 20260509060052 | 0 | 159 | 0.0 | 3.2 | 0.00 | 0.00 | 0.00 | 84 | 1011.7 |
| 20260509055538 | 0 | 159 | 0.0 | 1.6 | 0.00 | 0.00 | 0.00 | 84 | 1011.7 |
| 20260509055043 | 0 | 0 | 0.0 | 1.6 | 0.00 | 0.00 | 0.00 | 84 | 1011.7 |
| 20260509054602 | 0 | 0 | 0.0 | 1.6 | 0.00 | 0.00 | 0.00 | 84 | 1011.6 |
| 20260509054039 | 0 | 0 | 0.0 | 0.0 | 0.00 | 0.00 | 0.00 | 84 | 1011.6 |
| 20260509053540 | 0 | 0 | 0.0 | 3.2 | 0.00 | 0.00 | 0.00 | 83 | 1011.5 |
| 20260509053051 | 0 | 0 | 0.0 | 3.2 | 0.00 | 0.00 | 0.00 | 83 | 1011.5 |
| 20260509052541 | 0 | 0 | 0.0 | 3.2 | 0.00 | 0.00 | 0.00 | 83 | 1011.4 |
| 20260509052039 | 0 | 0 | 0.0 | 3.2 | 0.00 | 0.00 | 0.00 | 83 | 1011.4 |
| 20260509051549 | 0 | 0 | 0.0 | 0.0 | 0.00 | 0.00 | 0.00 | 82 | 1011.4 |
| 20260509051043 | 0 | 0 | 0.0 | 0.0 | 0.00 | 0.00 | 0.00 | 82 | 1011.4 |
| 20260509050539 | 0 | 0 | 0.0 | 1.6 | 0.00 | 0.00 | 0.00 | 82 | 1011.3 |
| 20260509050056 | 0 | 0 | 0.0 | 1.6 | 0.00 | 0.00 | 0.00 | 82 | 1011.3 |
| 20260509045539 | 0 | 0 | 0.0 | 1.6 | 0.00 | 0.00 | 0.00 | 81 | 1011.3 |
| 20260509045039 | 0 | 159 | 0.0 | 3.2 | 0.00 | 0.00 | 0.00 | 81 | 1011.4 |
| 20260509044545 | 1 | 159 | 0.0 | 3.2 | 0.00 | 0.00 | 0.00 | 81 | 1011.3 |
| 20260509044038 | 1 | 159 | 0.0 | 3.2 | 0.00 | 0.00 | 0.00 | 82 | 1011.3 |
| 20260509043539 | 1 | 158 | 1.6 | 3.2 | 0.00 | 0.00 | 0.00 | 81 | 1011.2 |
| 20260509043050 | 1 | 158 | 1.6 | 3.2 | 0.00 | 0.00 | 0.00 | 81 | 1011.2 |
| 20260509042538 | 1 | 158 | 1.6 | 3.2 | 0.00 | 0.00 | 0.00 | 80 | 1011.3 |
| 20260509042040 | 1 | 158 | 0.0 | 3.2 | 0.00 | 0.00 | 0.00 | 80 | 1011.2 |
| 20260509041548 | 1 | 159 | 0.0 | 3.2 | 0.00 | 0.00 | 0.00 | 79 | 1011.3 |
| 20260509041041 | 1 | 0 | 1.6 | 4.8 | 0.00 | 0.00 | 0.00 | 79 | 1011.2 |
| 20260509040539 | 1 | 0 | 0.0 | 6.4 | 0.00 | 0.00 | 0.00 | 79 | 1011.2 |
| 20260509040059 | 1 | 138 | 1.6 | 6.4 | 0.00 | 0.00 | 0.00 | 79 | 1011.2 |
| 20260509035539 | 1 | 0 | 0.0 | 6.4 | 0.00 | 0.00 | 0.00 | 78 | 1011.1 |
| 20260509035040 | 2 | 163 | 0.0 | 6.4 | 0.00 | 0.00 | 0.00 | 78 | 1011.1 |
| 20260509034550 | 2 | 0 | 1.6 | 8.0 | 0.00 | 0.00 | 0.00 | 78 | 1011.0 |
| 20260509034039 | 2 | 163 | 1.6 | 8.0 | 0.00 | 0.00 | 0.00 | 79 | 1011.0 |
| 20260509033539 | 2 | 141 | 1.6 | 8.0 | 0.00 | 0.00 | 0.00 | 78 | 1011.0 |
| 20260509033052 | 2 | 140 | 1.6 | 6.4 | 0.00 | 0.00 | 0.00 | 78 | 1010.9 |
| 20260509032540 | 2 | 135 | 1.6 | 6.4 | 0.00 | 0.00 | 0.00 | 77 | 1010.9 |
| 20260509032045 | 2 | 271 | 1.6 | 4.8 | 0.00 | 0.00 | 0.00 | 77 | 1010.9 |
| 20260509031544 | 2 | 271 | 1.6 | 6.4 | 0.00 | 0.00 | 0.00 | 77 | 1010.8 |
| 20260509031038 | 3 | 174 | 1.6 | 9.7 | 0.00 | 0.00 | 0.00 | 76 | 1010.7 |
| 20260509030540 | 3 | 165 | 3.2 | 9.7 | 0.00 | 0.00 | 0.00 | 76 | 1010.5 |
| 20260509030050 | 3 | 169 | 3.2 | 8.0 | 0.00 | 0.00 | 0.00 | 75 | 1010.6 |
| 20260509025544 | 3 | 172 | 1.6 | 3.2 | 0.00 | 0.00 | 0.00 | 74 | 1010.5 |
| 20260509025044 | 3 | 0 | 0.0 | 4.8 | 0.00 | 0.00 | 0.00 | 73 | 1010.4 |
| 20260509024548 | 3 | 173 | 0.0 | 6.4 | 0.00 | 0.00 | 0.00 | 72 | 1010.5 |
| 20260509024039 | 3 | 173 | 1.6 | 9.7 | 0.00 | 0.00 | 0.00 | 72 | 1010.4 |
| 20260509023540 | 3 | 182 | 3.2 | 9.7 | 0.00 | 0.00 | 0.00 | 72 | 1010.4 |
| 20260509023046 | 3 | 162 | 3.2 | 9.7 | 0.00 | 0.00 | 0.00 | 72 | 1010.4 |
| 20260509022539 | 3 | 170 | 0.0 | 3.2 | 0.00 | 0.00 | 0.00 | 71 | 1010.4 |
| 20260509022039 | 4 | 172 | 0.0 | 4.8 | 0.00 | 0.00 | 0.00 | 70 | 1010.3 |
| 20260509021545 | 4 | 172 | 1.6 | 4.8 | 0.00 | 0.00 | 0.00 | 68 | 1010.3 |
| 20260509021039 | 5 | 173 | 1.6 | 4.8 | 0.00 | 0.00 | 0.00 | 67 | 1010.3 |
| 20260509020538 | 5 | 198 | 1.6 | 4.8 | 0.00 | 0.00 | 0.00 | 66 | 1010.3 |
| 20260509020048 | 5 | 198 | 1.6 | 6.4 | 0.00 | 0.00 | 0.00 | 65 | 1010.3 |
| 20260509015543 | 5 | 199 | 1.6 | 6.4 | 0.00 | 0.00 | 0.00 | 64 | 1010.2 |
| 20260509015040 | 5 | 198 | 1.6 | 8.0 | 0.00 | 0.00 | 0.00 | 64 | 1010.3 |
| 20260509014547 | 5 | 184 | 3.2 | 8.0 | 0.00 | 0.00 | 0.00 | 62 | 1010.2 |
| 20260509014041 | 5 | 153 | 3.2 | 6.4 | 0.00 | 0.00 | 0.00 | 62 | 1010.1 |
| 20260509013539 | 6 | 222 | 3.2 | 4.8 | 0.00 | 0.00 | 0.00 | 61 | 1010.0 |
| 20260509013051 | 6 | 222 | 3.2 | 4.8 | 0.00 | 0.00 | 0.00 | 58 | 1010.0 |
| 20260509012539 | 6 | 290 | 0.0 | 4.8 | 0.00 | 0.00 | 0.00 | 56 | 1009.9 |
| 20260509012039 | 6 | 290 | 1.6 | 3.2 | 0.00 | 0.00 | 0.00 | 53 | 1009.7 |
| 20260509011555 | 6 | 290 | 1.6 | 3.2 | 0.00 | 0.00 | 0.00 | 50 | 1009.7 |
| 20260509011039 | 7 | 290 | 0.0 | 3.2 | 0.00 | 0.00 | 0.00 | 49 | 1009.6 |
| 20260509010539 | 7 | 290 | 1.6 | 3.2 | 0.00 | 0.00 | 0.00 | 48 | 1009.6 |
| 20260509010046 | 7 | 290 | 0.0 | 3.2 | 0.00 | 0.00 | 0.00 | 49 | 1009.5 |
| 20260509005538 | 7 | 290 | 1.6 | 3.2 | 0.00 | 0.00 | 0.00 | 45 | 1009.4 |
| 20260509005037 | 7 | 290 | 0.0 | 1.6 | 0.00 | 0.00 | 0.00 | 46 | 1009.4 |
| 20260509004604 | 7 | 290 | 0.0 | 1.6 | 0.00 | 0.00 | 0.00 | 47 | 1009.3 |
| 20260509004039 | 7 | 0 | 0.0 | 1.6 | 0.00 | 0.00 | 0.00 | 47 | 1009.2 |
| 20260509003540 | 7 | 0 | 0.0 | 0.0 | 0.00 | 0.00 | 0.00 | 48 | 1009.2 |
| 20260509003048 | 7 | 0 | 0.0 | 0.0 | 0.00 | 0.00 | 0.00 | 45 | 1009.3 |
| 20260509002539 | 7 | 0 | 0.0 | 1.6 | 0.00 | 0.00 | 0.00 | 46 | 1009.2 |
| 20260509002039 | 7 | 0 | 0.0 | 3.2 | 0.00 | 0.00 | 0.00 | 46 | 1009.2 |
| 20260509001547 | 7 | 0 | 0.0 | 3.2 | 0.00 | 0.00 | 0.00 | 47 | 1009.1 |
| 20260509001040 | 7 | 290 | 0.0 | 3.2 | 0.00 | 0.00 | 0.00 | 48 | 1009.1 |
| 20260509000539 | 7 | 290 | 0.0 | 3.2 | 0.00 | 0.00 | 0.00 | 48 | 1009.1 |
| 20260509000047 | 8 | 290 | 1.6 | 3.2 | 0.00 | 0.00 | 0.00 | 47 | 1008.9 |
| 20260508235542 | 8 | 290 | 0.0 | 4.8 | 0.00 | 0.00 | 0.00 | 46 | 1009.0 |
| 20260508235041 | 8 | 290 | 0.0 | 4.8 | 0.00 | 0.00 | 0.00 | 48 | 1008.8 |
| 20260508234548 | 8 | 290 | 1.6 | 4.8 | 0.00 | 0.00 | 0.00 | 43 | 1008.7 |
| 20260508234039 | 8 | 0 | 0.0 | 4.8 | 0.00 | 0.00 | 0.00 | 43 | 1008.7 |
| 20260508233540 | 8 | 290 | 1.6 | 4.8 | 0.00 | 0.00 | 0.00 | 44 | 1008.8 |
| 20260508233050 | 8 | 290 | 0.0 | 4.8 | 0.00 | 0.00 | 0.00 | 45 | 1008.7 |
| 20260508232541 | 8 | 290 | 0.0 | 4.8 | 0.00 | 0.00 | 0.00 | 43 | 1008.8 |
| 20260508232039 | 8 | 290 | 1.6 | 4.8 | 0.00 | 0.00 | 0.00 | 43 | 1008.7 |
| 20260508231551 | 8 | 290 | 0.0 | 4.8 | 0.00 | 0.00 | 0.00 | 43 | 1008.7 |
| 20260508231040 | 8 | 290 | 1.6 | 4.8 | 0.00 | 0.00 | 0.00 | 43 | 1008.7 |
| 20260508230538 | 9 | 290 | 1.6 | 4.8 | 0.00 | 0.00 | 0.00 | 43 | 1008.7 |
| 20260508230049 | 9 | 290 | 1.6 | 4.8 | 0.00 | 0.00 | 0.00 | 43 | 1008.6 |
| 20260508225537 | 9 | 290 | 1.6 | 6.4 | 0.00 | 0.00 | 0.00 | 43 | 1008.7 |
| 20260508225039 | 9 | 304 | 1.6 | 6.4 | 0.00 | 0.00 | 0.00 | 43 | 1008.7 |
| 20260508224551 | 9 | 304 | 3.2 | 6.4 | 0.00 | 0.00 | 0.00 | 41 | 1008.7 |
| 20260508224039 | 9 | 12 | 3.2 | 6.4 | 0.00 | 0.00 | 0.00 | 43 | 1008.7 |
| 20260508223539 | 9 | 321 | 1.6 | 8.0 | 0.00 | 0.00 | 0.00 | 44 | 1008.7 |
| 20260508223048 | 9 | 321 | 3.2 | 8.0 | 0.00 | 0.00 | 0.00 | 42 | 1008.7 |
| 20260508222538 | 9 | 317 | 3.2 | 16.1 | 0.00 | 0.00 | 0.00 | 42 | 1008.6 |
| 20260508222039 | 9 | 291 | 6.4 | 16.1 | 0.00 | 0.00 | 0.00 | 41 | 1008.5 |
| 20260508221549 | 9 | 316 | 4.8 | 16.1 | 0.00 | 0.00 | 0.00 | 42 | 1008.5 |
| 20260508221041 | 9 | 313 | 6.4 | 16.1 | 0.00 | 0.00 | 0.00 | 42 | 1008.5 |
| 20260508220539 | 9 | 355 | 6.4 | 16.1 | 0.00 | 0.00 | 0.00 | 42 | 1008.6 |
| 20260508220056 | 9 | 341 | 6.4 | 17.7 | 0.00 | 0.00 | 0.00 | 41 | 1008.6 |
| 20260508215537 | 9 | 296 | 8.0 | 17.7 | 0.00 | 0.00 | 0.00 | 43 | 1008.5 |
| 20260508215039 | 9 | 336 | 4.8 | 16.1 | 0.00 | 0.00 | 0.00 | 43 | 1008.4 |
| 20260508214556 | 9 | 336 | 6.4 | 14.5 | 0.00 | 0.00 | 0.00 | 41 | 1008.5 |
| 20260508214038 | 9 | 297 | 4.8 | 16.1 | 0.00 | 0.00 | 0.00 | 41 | 1008.3 |
| 20260508213540 | 9 | 272 | 6.4 | 16.1 | 0.00 | 0.00 | 0.00 | 42 | 1008.4 |
| 20260508213050 | 10 | 311 | 6.4 | 16.1 | 0.00 | 0.00 | 0.00 | 43 | 1008.3 |
| 20260508212539 | 10 | 294 | 4.8 | 16.1 | 0.00 | 0.00 | 0.00 | 41 | 1008.3 |
| 20260508212038 | 10 | 328 | 4.8 | 11.3 | 0.00 | 0.00 | 0.00 | 41 | 1008.3 |
| 20260508211548 | 10 | 309 | 3.2 | 12.9 | 0.00 | 0.00 | 0.00 | 41 | 1008.3 |
| 20260508211039 | 10 | 325 | 6.4 | 19.3 | 0.00 | 0.00 | 0.00 | 42 | 1008.2 |
| 20260508210540 | 10 | 295 | 9.7 | 19.3 | 0.00 | 0.00 | 0.00 | 41 | 1008.1 |
| 20260508210041 | 10 | 254 | 9.7 | 19.3 | 0.00 | 0.00 | 0.00 | 41 | 1008.1 |
| 20260508205539 | 10 | 321 | 8.0 | 22.5 | 0.00 | 0.00 | 0.00 | 41 | 1008.2 |
| 20260508205039 | 10 | 344 | 11.3 | 22.5 | 0.00 | 0.00 | 0.00 | 39 | 1008.0 |
| 20260508204549 | 10 | 323 | 8.0 | 27.4 | 0.00 | 0.00 | 0.00 | 42 | 1008.1 |
| 20260508204042 | 10 | 316 | 14.5 | 27.4 | 0.00 | 0.00 | 0.00 | 39 | 1008.0 |
| 20260508203541 | 10 | 310 | 12.9 | 27.4 | 0.00 | 0.00 | 0.00 | 38 | 1008.0 |
| 20260508203056 | 10 | 294 | 6.4 | 24.1 | 0.00 | 0.00 | 0.00 | 40 | 1008.0 |
| 20260508202540 | 10 | 259 | 11.3 | 24.1 | 0.00 | 0.00 | 0.00 | 41 | 1007.9 |
| 20260508202039 | 10 | 276 | 8.0 | 20.9 | 0.00 | 0.00 | 0.00 | 41 | 1007.9 |
| 20260508201543 | 10 | 274 | 11.3 | 22.5 | 0.00 | 0.00 | 0.00 | 39 | 1007.9 |
| 20260508201042 | 10 | 252 | 11.3 | 22.5 | 0.00 | 0.00 | 0.00 | 40 | 1007.9 |
| 20260508200541 | 10 | 301 | 8.0 | 20.9 | 0.00 | 0.00 | 0.00 | 42 | 1007.9 |
| 20260508200043 | 10 | 288 | 11.3 | 20.9 | 0.00 | 0.00 | 0.00 | 41 | 1007.8 |
| 20260508195538 | 10 | 298 | 6.4 | 19.3 | 0.00 | 0.00 | 0.00 | 44 | 1007.9 |
| 20260508195039 | 10 | 300 | 8.0 | 19.3 | 0.00 | 0.00 | 0.00 | 42 | 1008.0 |
| 20260508194540 | 10 | 266 | 6.4 | 20.9 | 0.00 | 0.00 | 0.00 | 47 | 1008.0 |
| 20260508194039 | 10 | 268 | 8.0 | 20.9 | 0.00 | 0.00 | 0.00 | 43 | 1008.0 |
| 20260508193538 | 9 | 317 | 9.7 | 17.7 | 0.00 | 0.00 | 0.00 | 44 | 1008.0 |
| 20260508193103 | 9 | 312 | 3.2 | 16.1 | 0.00 | 0.00 | 0.00 | 46 | 1008.1 |
| 20260508192537 | 9 | 329 | 6.4 | 17.7 | 0.00 | 0.00 | 0.00 | 45 | 1008.2 |
| 20260508192040 | 9 | 349 | 9.7 | 17.7 | 0.00 | 0.00 | 0.00 | 46 | 1008.1 |
| 20260508191548 | 9 | 323 | 6.4 | 14.5 | 0.00 | 0.00 | 0.00 | 44 | 1008.0 |
| 20260508191039 | 9 | 327 | 4.8 | 17.7 | 0.00 | 0.00 | 0.00 | 44 | 1008.0 |
| 20260508190539 | 9 | 314 | 6.4 | 20.9 | 0.00 | 0.00 | 0.00 | 45 | 1008.1 |
| 20260508190045 | 9 | 308 | 11.3 | 20.9 | 0.00 | 0.00 | 0.00 | 44 | 1008.1 |
| 20260508185537 | 10 | 271 | 11.3 | 20.9 | 0.00 | 0.00 | 0.00 | 42 | 1008.1 |
| 20260508185039 | 10 | 293 | 8.0 | 22.5 | 0.00 | 0.00 | 0.00 | 45 | 1008.1 |
| 20260508184548 | 10 | 281 | 4.8 | 22.5 | 0.00 | 0.00 | 0.00 | 44 | 1008.1 |
| 20260508184039 | 9 | 313 | 9.7 | 25.7 | 0.00 | 0.00 | 0.00 | 44 | 1008.2 |
| 20260508183539 | 8 | 344 | 12.9 | 25.7 | 0.00 | 0.00 | 0.00 | 44 | 1008.3 |
| 20260508183040 | 8 | 279 | 6.4 | 24.1 | 0.00 | 0.00 | 0.00 | 46 | 1008.3 |
| 20260508182540 | 8 | 292 | 11.3 | 24.1 | 0.00 | 0.00 | 0.00 | 45 | 1008.2 |
| 20260508182039 | 8 | 294 | 14.5 | 24.1 | 0.00 | 0.00 | 0.00 | 43 | 1008.2 |
| 20260508181558 | 8 | 327 | 11.3 | 20.9 | 0.00 | 0.00 | 0.00 | 44 | 1008.2 |
| 20260508181039 | 8 | 269 | 6.4 | 20.9 | 0.00 | 0.00 | 0.00 | 43 | 1008.2 |
| 20260508180537 | 8 | 347 | 11.3 | 20.9 | 0.00 | 0.00 | 0.00 | 43 | 1008.2 |
| 20260508180049 | 8 | 351 | 6.4 | 20.9 | 0.00 | 0.00 | 0.00 | 45 | 1008.3 |
| 20260508175539 | 8 | 294 | 6.4 | 14.5 | 0.00 | 0.00 | 0.00 | 47 | 1008.3 |
| 20260508175039 | 8 | 288 | 6.4 | 20.9 | 0.00 | 0.00 | 0.00 | 49 | 1008.3 |
| 20260508174549 | 8 | 335 | 8.0 | 20.9 | 0.00 | 0.00 | 0.00 | 46 | 1008.4 |
| 20260508174039 | 8 | 331 | 8.0 | 20.9 | 0.00 | 0.00 | 0.00 | 46 | 1008.3 |
| 20260508173539 | 8 | 342 | 8.0 | 17.7 | 0.00 | 0.00 | 0.00 | 49 | 1008.3 |
| 20260508173048 | 8 | 334 | 9.7 | 17.7 | 0.00 | 0.00 | 0.00 | 48 | 1008.3 |
| 20260508172538 | 8 | 283 | 6.4 | 16.1 | 0.00 | 0.00 | 0.00 | 49 | 1008.4 |
| 20260508172040 | 7 | 320 | 8.0 | 24.1 | 0.00 | 0.00 | 0.00 | 50 | 1008.4 |
| 20260508171548 | 7 | 333 | 8.0 | 24.1 | 0.00 | 0.00 | 0.00 | 51 | 1008.3 |
| 20260508171039 | 7 | 312 | 12.9 | 24.1 | 0.00 | 0.00 | 0.00 | 49 | 1008.4 |
| 20260508170537 | 7 | 281 | 9.7 | 22.5 | 0.00 | 0.00 | 0.00 | 50 | 1008.3 |
| 20260508170050 | 7 | 304 | 8.0 | 17.7 | 0.00 | 0.00 | 0.00 | 48 | 1008.4 |
| 20260508165539 | 7 | 317 | 9.7 | 17.7 | 0.00 | 0.00 | 0.00 | 47 | 1008.3 |
| 20260508165039 | 7 | 325 | 6.4 | 20.9 | 0.00 | 0.00 | 0.00 | 49 | 1008.2 |
| 20260508164547 | 7 | 320 | 8.0 | 20.9 | 0.00 | 0.00 | 0.00 | 48 | 1008.3 |
| 20260508164039 | 7 | 275 | 4.8 | 14.5 | 0.00 | 0.00 | 0.00 | 49 | 1008.4 |
| 20260508163539 | 7 | 290 | 3.2 | 14.5 | 0.00 | 0.00 | 0.00 | 48 | 1008.4 |
| 20260508163050 | 7 | 257 | 8.0 | 17.7 | 0.00 | 0.00 | 0.00 | 50 | 1008.3 |
| 20260508162539 | 7 | 335 | 6.4 | 24.1 | 0.00 | 0.00 | 0.00 | 48 | 1008.3 |
| 20260508162039 | 7 | 314 | 11.3 | 24.1 | 0.00 | 0.00 | 0.00 | 47 | 1008.3 |
| 20260508161548 | 7 | 282 | 9.7 | 16.1 | 0.00 | 0.00 | 0.00 | 45 | 1008.4 |
| 20260508161043 | 7 | 291 | 6.4 | 24.1 | 0.00 | 0.00 | 0.00 | 46 | 1008.3 |
| 20260508160543 | 7 | 315 | 11.3 | 24.1 | 0.00 | 0.00 | 0.00 | 44 | 1008.3 |
| 20260508160109 | 8 | 304 | 14.5 | 24.1 | 0.00 | 0.00 | 0.00 | 44 | 1008.3 |
| 20260508155542 | 8 | 311 | 12.9 | 24.1 | 0.00 | 0.00 | 0.00 | 46 | 1008.3 |
| 20260508155037 | 7 | 281 | 9.7 | 19.3 | 0.00 | 0.00 | 0.00 | 48 | 1008.3 |
| 20260508154549 | 8 | 321 | 8.0 | 27.4 | 0.00 | 0.00 | 0.00 | 47 | 1008.3 |
| 20260508154039 | 8 | 302 | 12.9 | 27.4 | 0.00 | 0.00 | 0.00 | 47 | 1008.3 |
| 20260508153538 | 8 | 327 | 4.8 | 22.5 | 0.00 | 0.00 | 0.00 | 50 | 1008.3 |
| 20260508153051 | 7 | 232 | 11.3 | 22.5 | 0.00 | 0.00 | 0.00 | 52 | 1008.3 |
| 20260508152539 | 7 | 308 | 4.8 | 22.5 | 0.00 | 0.00 | 0.00 | 53 | 1008.3 |
| 20260508152041 | 7 | 306 | 12.9 | 22.5 | 0.00 | 0.00 | 0.00 | 54 | 1008.3 |
| 20260508151552 | 7 | 293 | 6.4 | 24.1 | 0.00 | 0.00 | 0.00 | 55 | 1008.3 |
| 20260508151039 | 7 | 296 | 12.9 | 32.2 | 0.00 | 0.00 | 0.00 | 53 | 1008.4 |
| 20260508150537 | 7 | 315 | 19.3 | 32.2 | 0.00 | 0.00 | 0.00 | 53 | 1008.4 |
| 20260508150051 | 6 | 321 | 14.5 | 32.2 | 0.00 | 0.00 | 0.00 | 53 | 1008.4 |
| 20260508145541 | 7 | 327 | 16.1 | 32.2 | 0.00 | 0.00 | 0.00 | 54 | 1008.3 |
| 20260508145038 | 7 | 288 | 9.7 | 25.7 | 0.00 | 0.00 | 0.00 | 53 | 1008.4 |
| 20260508144543 | 7 | 317 | 12.9 | 25.7 | 0.00 | 0.00 | 0.00 | 54 | 1008.5 |
| 20260508144039 | 7 | 336 | 14.5 | 32.2 | 0.00 | 0.00 | 0.00 | 56 | 1008.5 |
| 20260508143541 | 7 | 318 | 12.9 | 32.2 | 0.00 | 0.00 | 0.00 | 56 | 1008.4 |
| 20260508143055 | 7 | 311 | 12.9 | 22.5 | 0.00 | 0.00 | 0.00 | 58 | 1008.4 |
| 20260508142539 | 6 | 323 | 9.7 | 27.4 | 0.00 | 0.00 | 0.00 | 61 | 1008.5 |
| 20260508142039 | 6 | 17 | 11.3 | 27.4 | 0.00 | 0.00 | 0.00 | 61 | 1008.6 |
| 20260508141553 | 6 | 317 | 16.1 | 25.7 | 0.00 | 0.00 | 0.00 | 61 | 1008.5 |
| 20260508141039 | 6 | 9 | 11.3 | 29.0 | 0.00 | 0.00 | 0.00 | 61 | 1008.5 |
| 20260508140539 | 6 | 308 | 14.5 | 29.0 | 0.00 | 0.00 | 0.00 | 61 | 1008.3 |
| 20260508140046 | 6 | 327 | 14.5 | 29.0 | 0.00 | 0.00 | 0.00 | 59 | 1008.4 |
| 20260508135542 | 7 | 286 | 14.5 | 29.0 | 0.00 | 0.00 | 0.00 | 58 | 1008.3 |
| 20260508135040 | 8 | 269 | 14.5 | 24.1 | 0.00 | 0.00 | 0.00 | 58 | 1008.2 |
| 20260508134542 | 7 | 284 | 9.7 | 25.7 | 0.00 | 0.00 | 0.00 | 57 | 1008.2 |
| 20260508134039 | 7 | 306 | 12.9 | 27.4 | 0.00 | 0.00 | 0.00 | 59 | 1008.2 |
| 20260508133539 | 6 | 319 | 11.3 | 27.4 | 0.00 | 0.00 | 0.00 | 59 | 1008.1 |
| 20260508133056 | 7 | 346 | 16.1 | 27.4 | 0.00 | 0.00 | 0.00 | 58 | 1008.1 |
| 20260508132539 | 7 | 309 | 12.9 | 20.9 | 0.00 | 0.00 | 0.00 | 60 | 1008.0 |
| 20260508132039 | 7 | 346 | 9.7 | 19.3 | 0.00 | 0.00 | 0.00 | 64 | 1008.1 |
| 20260508131545 | 6 | 295 | 8.0 | 20.9 | 0.00 | 0.00 | 0.00 | 64 | 1008.1 |
| 20260508131039 | 6 | 286 | 8.0 | 20.9 | 0.00 | 0.00 | 0.00 | 64 | 1008.1 |
| 20260508130539 | 6 | 313 | 4.8 | 19.3 | 0.00 | 0.00 | 0.00 | 65 | 1008.0 |
| 20260508130053 | 6 | 5 | 9.7 | 19.3 | 0.00 | 0.00 | 0.00 | 64 | 1008.0 |
| 20260508125539 | 6 | 284 | 9.7 | 16.1 | 0.00 | 0.00 | 0.00 | 65 | 1007.9 |
| 20260508125039 | 6 | 340 | 8.0 | 16.1 | 0.00 | 0.00 | 0.00 | 65 | 1008.0 |
| 20260508124548 | 6 | 334 | 4.8 | 16.1 | 0.00 | 0.00 | 0.00 | 67 | 1008.0 |
| 20260508124039 | 6 | 339 | 8.0 | 16.1 | 0.00 | 0.00 | 0.00 | 66 | 1008.0 |
| 20260508123539 | 6 | 312 | 8.0 | 16.1 | 0.00 | 0.00 | 0.00 | 67 | 1008.0 |
| 20260508123050 | 6 | 327 | 8.0 | 14.5 | 0.00 | 0.00 | 0.00 | 68 | 1008.0 |
| 20260508122539 | 6 | 323 | 4.8 | 12.9 | 0.00 | 0.00 | 0.00 | 69 | 1008.0 |
| 20260508122039 | 6 | 338 | 4.8 | 12.9 | 0.00 | 0.00 | 0.00 | 69 | 1007.9 |
| 20260508121603 | 6 | 259 | 3.2 | 11.3 | 0.00 | 0.00 | 0.00 | 72 | 1007.8 |
| 20260508121041 | 6 | 137 | 3.2 | 6.4 | 0.00 | 0.00 | 0.00 | 70 | 1007.8 |
| 20260508120539 | 6 | 135 | 1.6 | 4.8 | 0.00 | 0.00 | 0.00 | 71 | 1007.8 |
| 20260508120054 | 5 | 136 | 0.0 | 1.6 | 0.00 | 0.00 | 0.00 | 75 | 1007.8 |
| 20260508115543 | 5 | 0 | 0.0 | 1.6 | 0.00 | 0.00 | 0.00 | 78 | 1007.8 |